Pine Ridge, SD

3:40 PM MDT on May 25, 2017 (GMT -0600)
Pine Ridge

Weather History for KIEN - December, 2012

Change the Weather History Date:

Saturday, December 8, 2012

  Actual Average Record
Temperature  
Mean Temperature 30 °F 24 °F  
Max Temperature 46 °F 37 °F 60 °F (2006)
Min Temperature 14 °F 11 °F -19 °F (2013)
Degree Days  
Heating Degree Days 35 41  
Month to date heating degree days 204 321  
Since 1 July heating degree days 1792 2011  
Cooling Degree Days 0 0  
Month to date cooling degree days 0 0  
Year to date cooling degree days 1103 717  
Moisture  
Dew Point 22 °F    
Average Humidity 66    
Maximum Humidity 92    
Minimum Humidity 40    
Precipitation  
Precipitation T in 0.01 in 0.13 in (2007)
Month to date precipitation T 0.08  
Year to date precipitation 11.03 17.25  
Sea Level Pressure  
Sea Level Pressure 29.81 in    
Wind  
Wind Speed 12 mph (West)    
Max Wind Speed 24 mph    
Max Gust Speed 30 mph    
Visibility 5 miles    
Events Fog , Snow    
T = Trace of Precipitation, MM = Missing Value Source: NWS Daily Summary

Daily Weather History Graph

Daily Weather History Graph

Search for Another Location

Airport or City:

Trip Planner

Search our weather history database for the weather conditions in past years. The results will help you decide how hot, cold, wet, or windy it might be!

Date:

Astronomy

Dec. 08, 2012 Rise Set
Actual Time 7:09 AM MST 4:15 PM MST
Civil Twilight 6:37 AM MST 4:47 PM MST
Nautical Twilight 6:01 AM MST 5:23 PM MST
Astronomical Twilight 5:26 AM MST 5:57 PM MST
Moon 1:29 AM MST (12/8) 12:52 PM MST (12/8)
Length of Visible Light 10h 10m
Length of Day
9h 06m
Waning Crescent, 27% of the Moon is Illuminated
Dec 8
Waning Crescent
Dec 13
New
Dec 19
First Quarter
Dec 28
Full
Jan 4
Last Quarter

Hourly Weather History & Observations

Time (MST) Temp. Windchill Dew Point Humidity Pressure Visibility Wind Dir Wind Speed Gust Speed Precip Events Conditions
12:52 AM 26.1 °F 20.5 °F 19.9 °F 78% 29.90 in 10.0 mi WSW 4.6 mph - N/A   Clear
1:52 AM 28.9 °F 19.8 °F 21.9 °F 75% 29.88 in 10.0 mi South 10.4 mph - N/A   Clear
2:52 AM 30.9 °F 24.3 °F 21.9 °F 69% 29.83 in 10.0 mi South 6.9 mph - N/A   Scattered Clouds
3:52 AM 30.9 °F 19.1 °F 21.0 °F 67% 29.79 in 10.0 mi South 18.4 mph - N/A   Scattered Clouds
4:52 AM 30.0 °F 20.0 °F 21.0 °F 69% 29.77 in 10.0 mi South 12.7 mph - N/A   Scattered Clouds
5:52 AM 30.9 °F 18.4 °F 21.0 °F 67% 29.75 in 10.0 mi South 20.7 mph 27.6 mph N/A   Partly Cloudy
6:52 AM 32.0 °F 19.5 °F 21.9 °F 66% 29.73 in 10.0 mi South 21.9 mph 26.5 mph N/A   Overcast
7:52 AM 33.1 °F 21.9 °F 23.0 °F 66% 29.71 in 10.0 mi South 18.4 mph 28.8 mph N/A   Clear
8:52 AM 37.0 °F 27.7 °F 25.0 °F 62% 29.70 in 10.0 mi SSW 16.1 mph 21.9 mph N/A   Clear
9:52 AM 42.1 °F 33.6 °F 28.0 °F 58% 29.68 in 10.0 mi SW 18.4 mph 24.2 mph N/A   Clear
10:52 AM 39.0 °F 30.6 °F 30.0 °F 70% 29.68 in 10.0 mi SSW 15.0 mph - N/A   Overcast
11:52 AM 41.0 °F 33.1 °F 28.0 °F 60% 29.66 in 10.0 mi SW 15.0 mph - N/A   Mostly Cloudy
12:52 PM 45.0 °F 37.9 °F 26.1 °F 48% 29.63 in 10.0 mi West 16.1 mph 21.9 mph N/A   Partly Cloudy
1:52 PM 41.0 °F 34.7 °F 19.9 °F 43% 29.65 in 10.0 mi WNW 10.4 mph - N/A   Overcast
2:52 PM 39.0 °F 31.8 °F 18.0 °F 43% 29.68 in 10.0 mi North 11.5 mph 17.3 mph N/A   Mostly Cloudy
3:52 PM 34.0 °F 29.8 °F 21.0 °F 59% 29.74 in 10.0 mi North 4.6 mph - N/A   Clear
5:27 PM 33.8 °F 29.6 °F 24.8 °F 70% 29.73 in 4.0 mi Variable 4.6 mph - 0.00 in Snow Light Snow
5:40 PM 32.0 °F 28.7 °F 26.6 °F 80% 29.74 in 1.8 mi NNW 3.5 mph - 0.00 in Snow Light Snow
5:52 PM 30.9 °F 27.5 °F 27.0 °F 85% 29.83 in 0.8 mi WNW 3.5 mph - 0.00 in Snow Light Snow
6:10 PM 30.2 °F 24.3 °F 28.4 °F 93% 29.76 in 0.8 mi West 5.8 mph - 0.00 in Snow Light Snow
6:41 PM 30.2 °F 23.4 °F 28.4 °F 93% 29.76 in 0.5 mi West 6.9 mph - 0.00 in Fog , Snow Snow
6:52 PM 30.0 °F 22.4 °F 28.0 °F 92% 29.85 in 0.5 mi West 8.1 mph - 0.00 in Fog , Snow Snow
7:03 PM 28.4 °F 22.2 °F 28.4 °F 100% 29.78 in 0.2 mi West 5.8 mph - 0.00 in Fog , Snow Heavy Snow
7:22 PM 28.4 °F 20.4 °F 26.6 °F 93% 29.79 in 0.5 mi West 8.1 mph - 0.00 in Fog , Snow Snow
7:34 PM 28.4 °F 21.2 °F 26.6 °F 93% 29.79 in 1.0 mi West 6.9 mph - 0.00 in Snow Light Snow
7:42 PM 28.4 °F 18.5 °F 26.6 °F 93% 29.79 in 1.2 mi West 11.5 mph - 0.00 in Snow Light Snow
7:52 PM 28.0 °F 21.7 °F 25.0 °F 88% 29.87 in 1.2 mi WNW 5.8 mph - 0.00 in Snow Light Snow
7:56 PM 28.4 °F 22.2 °F 24.8 °F 86% 29.79 in 2.0 mi West 5.8 mph - 0.00 in Snow Light Snow
8:04 PM 28.4 °F 20.4 °F 24.8 °F 86% 29.80 in 9.0 mi West 8.1 mph - 0.00 in   Overcast
8:32 PM 26.6 °F 14.7 °F 21.2 °F 80% 29.83 in 2.5 mi NW 15.0 mph 25.3 mph 0.00 in Snow Light Snow
8:40 PM 24.8 °F 13.4 °F 21.2 °F 86% 29.83 in 0.8 mi NW 12.7 mph 21.9 mph 0.00 in Snow Light Snow
8:49 PM 24.8 °F 14.0 °F 21.2 °F 86% 29.84 in 1.2 mi NW 11.5 mph - 0.00 in Snow Light Snow
8:52 PM 24.1 °F 12.5 °F 21.9 °F 91% 29.93 in 1.5 mi NW 12.7 mph - 0.00 in Snow Light Snow
9:27 PM 23.0 °F 14.7 °F 19.4 °F 86% 29.87 in 2.5 mi NW 6.9 mph - 0.00 in Snow Light Snow
9:30 PM 23.0 °F 13.9 °F 19.4 °F 86% 29.87 in 3.0 mi NW 8.1 mph - 0.00 in Snow Light Snow
9:49 PM 23.0 °F 11.1 °F 19.4 °F 86% 29.89 in 2.0 mi WNW 12.7 mph 17.3 mph 0.00 in Snow Light Snow
10:52 PM 18.0 °F 4.2 °F 12.9 °F 81% 30.03 in 4.0 mi North 13.8 mph 18.4 mph 0.00 in Snow Light Snow
11:09 PM 17.6 °F 2.2 °F 10.4 °F 73% 29.94 in 2.5 mi NNW 17.3 mph 25.3 mph 0.00 in Snow Light Snow
11:17 PM 15.8 °F -1.9 °F 10.4 °F 79% 29.94 in 3.0 mi North 21.9 mph 28.8 mph 0.00 in Snow Light Snow
11:41 PM 14.0 °F -2.5 °F 8.6 °F 79% 29.95 in 5.0 mi NNW 17.3 mph 23.0 mph 0.00 in Snow Light Snow
11:50 PM 14.0 °F -0.2 °F 6.8 °F 73% 29.94 in 6.0 mi NNW 12.7 mph 21.9 mph 0.00 in Snow Light Snow
11:52 PM 14.0 °F -0.8 °F 7.0 °F 74% 30.04 in 7.0 mi NNW 13.8 mph 21.9 mph 0.00 in Snow Light Snow